Location: Milton Keynes
(52.0316°N, 0.7531°W)
Time: 01:13:01
(UTC+00:00)

ISS - Pass Details

Date: 25 January 2019
Orbit: 403 x 411 km, 51.6° (Epoch: 17 February)

Event Time Altitude Azimuth Distance (km) Brightness Sun altitude
Rises 19:01:43 0° 236° (SW) 2,330 1.0 -21.9°
Reaches altitude 10° 19:03:51 10° 230° (SW) 1,473 -0.3 -22.2°
Enters shadow 19:05:54 31° 205° (SSW) 753 -2.3 -22.5°
